Location: Kielce
(50.8833°N, 20.6167°E)
Time: 20:34:53
(UTC+02:00)

A-11 Canister half - Visible Passes

Search period start: 19 April 2021 00:00
Search period end: 29 April 2021 00:00
Orbit: 1515 x 1685 km, 47.2° (Epoch: 18 April)

Date Brightness Start Highest point End Pass type
(mag) Time Alt. Az. Time Alt. Az. Time Alt. Az.
19 Apr 8.9 01:00:43 10° W 01:10:17 73° S 01:20:13 10° E visible
19 Apr 9.1 03:05:21 10° W 03:14:43 54° SSW 03:24:22 10° SE visible
19 Apr 9.7 20:32:11 10° S 20:39:29 26° SE 20:46:56 10° E visible
19 Apr 9.0 22:33:45 10° SW 22:42:54 57° SSE 22:52:24 10° E visible
20 Apr 8.9 00:37:49 10° W 00:47:21 73° S 00:57:16 10° E visible
20 Apr 9.1 02:42:26 10° W 02:51:49 55° SSW 03:01:30 10° SE visible
20 Apr 9.9 04:47:50 10° W 04:55:19 25° SW 05:02:57 10° S visible
20 Apr 9.8 20:09:36 10° S 20:16:40 25° SE 20:23:54 10° E visible
20 Apr 9.0 22:10:57 10° SW 22:20:01 55° SSE 22:29:26 10° E visible
21 Apr 8.9 00:14:55 10° W 00:24:26 73° S 00:34:19 10° E visible
21 Apr 9.0 02:19:32 10° W 02:28:56 57° SSW 02:38:37 10° SE visible
21 Apr 9.8 04:24:48 10° W 04:32:29 27° SW 04:40:19 10° S visible
21 Apr 9.0 21:48:08 10° SW 21:57:09 54° SSE 22:06:30 10° E visible
21 Apr 8.9 23:52:03 10° W 00:01:31 73° S 00:11:22 10° E visible
22 Apr 9.0 01:56:37 10° W 02:06:02 58° SSW 02:15:45 10° SE visible
22 Apr 9.7 04:01:49 10° W 04:09:39 28° SW 04:17:39 10° S visible
22 Apr 9.1 21:25:21 10° SW 21:34:17 52° SSE 21:43:32 10° E visible
22 Apr 8.9 23:29:10 10° WSW 23:38:36 73° S 23:48:25 10° E visible
23 Apr 9.0 01:33:43 10° W 01:43:08 60° SSW 01:52:52 10° SE visible
23 Apr 9.7 03:38:50 10° W 03:46:48 30° SW 03:54:59 10° SSE visible
23 Apr 9.1 21:02:33 10° SW 21:11:25 50° SSE 21:20:35 10° E visible
23 Apr 8.9 23:06:17 10° WSW 23:15:42 72° S 23:25:28 10° E visible
24 Apr 9.0 01:10:50 10° W 01:20:14 61° SSW 01:29:58 10° ESE visible
24 Apr 9.6 03:15:51 10° W 03:23:58 31° SW 03:32:18 10° SSE visible
24 Apr 9.2 20:39:46 10° SW 20:48:34 48° SSE 20:57:38 10° E visible
24 Apr 8.9 22:43:25 10° WSW 22:52:47 72° S 23:02:32 10° E visible
25 Apr 8.9 00:47:56 10° W 00:57:20 62° SSW 01:07:03 10° ESE visible
25 Apr 9.5 02:52:53 10° W 03:01:08 33° SW 03:09:35 10° SSE visible
25 Apr 9.3 20:17:00 10° SW 20:25:43 47° SSE 20:34:41 10° E visible
25 Apr 8.9 22:20:32 10° WSW 22:29:53 71° S 22:39:35 10° E visible
26 Apr 8.9 00:25:03 10° W 00:34:26 64° SSW 00:44:09 10° ESE visible
26 Apr 9.5 02:29:56 10° W 02:38:17 34° SW 02:46:51 10° SSE visible
26 Apr 8.9 21:57:40 10° WSW 22:06:59 70° S 22:16:38 10° E visible
27 Apr 8.9 00:02:09 10° W 00:11:32 65° SSW 00:21:14 10° ESE visible
27 Apr 9.4 02:07:00 10° W 02:15:26 36° SW 02:24:07 10° SSE visible
27 Apr 10.4 04:16:38 10° WSW 04:20:21 - SW 04:17:25 10° WSW visible
27 Apr 9.0 21:34:48 10° WSW 21:44:04 70° S 21:53:41 10° E visible
27 Apr 8.9 23:39:16 10° W 23:48:38 66° SSW 23:56:18 18° ESE visible
28 Apr 9.4 01:44:04 10° W 01:52:35 37° SW 01:54:19 35° SSW visible
28 Apr 10.6 04:03:53 - SSW 04:03:53 - SSW 03:52:22 10° WSW visible
28 Apr 9.0 21:11:56 10° WSW 21:21:11 69° S 21:30:45 10° E visible
28 Apr 8.9 23:16:22 10° W 23:25:44 67° SSW 23:33:02 20° ESE visible
